GAF279 MROC-SPGM

Flight info

Callsign GAF279
Flight time N/A
Altitude 31000
Route DOTAS3D DRAKE UM659 GYV DCT POY DCT ENPAP
Aircraft A400/H-SDE2E3FGHIJ4J5M1RWXY/LB1D1

Departure

Time 2026-05-06 16:38
Airport Juan Santamaría International Airport (MROC)

Arrival

Time N/A
Airport Tingo Maria Airport (SPGM)
Time Latitude Longitude Altitude Speed Heading
2026-05-06 16:13 9.99418 -84.21281 2985 ft 0 kts 158°
2026-05-06 16:34 9.99408 -84.21277 2985 ft 8 kts 158°
2026-05-06 16:34 9.99371 -84.21277 2984 ft 4 kts 187°
2026-05-06 16:34 9.99349 -84.21281 2983 ft 5 kts 192°
2026-05-06 16:35 9.99326 -84.21305 2981 ft 9 kts 231°
2026-05-06 16:35 9.99296 -84.21380 2978 ft 18 kts 249°
2026-05-06 16:35 9.99210 -84.21586 2970 ft 16 kts 260°
2026-05-06 16:35 9.99190 -84.21669 2966 ft 20 kts 255°
2026-05-06 16:36 9.99142 -84.21820 2952 ft 25 kts 253°
2026-05-06 16:36 9.99094 -84.21988 2944 ft 22 kts 275°
2026-05-06 16:36 9.99088 -84.22118 2942 ft 18 kts 246°
2026-05-06 16:36 9.99094 -84.22224 2941 ft 6 kts 249°
2026-05-06 16:37 9.99056 -84.22224 2940 ft 16 kts 175°
2026-05-06 16:37 9.98936 -84.22176 2942 ft 19 kts 155°
2026-05-06 16:37 9.98921 -84.22148 2933 ft 4 kts 86°
2026-05-06 16:37 9.98938 -84.22079 2940 ft 1 kts 62°
2026-05-06 16:38 9.98959 -84.22038 2946 ft 31 kts 64°
2026-05-06 16:38 9.99131 -84.21581 2969 ft 118 kts 71°
2026-05-06 16:38 9.99499 -84.20567 3322 ft 175 kts 70°
2026-05-06 16:38 10.00092 -84.19372 4155 ft 202 kts 65°
2026-05-06 16:39 10.00707 -84.18009 5037 ft 226 kts 66°
2026-05-06 16:39 10.01390 -84.16510 5675 ft 241 kts 64°
2026-05-06 16:39 10.02044 -84.14911 6713 ft 243 kts 71°
2026-05-06 16:39 10.02340 -84.13269 8080 ft 232 kts 90°
2026-05-06 16:40 10.01996 -84.11706 9463 ft 230 kts 113°
2026-05-06 16:40 10.00981 -84.10377 10384 ft 249 kts 134°
2026-05-06 16:40 9.99611 -84.09223 11203 ft 262 kts 138°
2026-05-06 16:40 9.98146 -84.08080 12140 ft 268 kts 138°
2026-05-06 16:41 9.96653 -84.06908 13048 ft 277 kts 138°
2026-05-06 16:41 9.95032 -84.05699 13642 ft 303 kts 144°
2026-05-06 16:41 9.93026 -84.04838 14330 ft 324 kts 163°
2026-05-06 16:41 9.90732 -84.04756 15114 ft 340 kts 185°
2026-05-06 16:42 9.88493 -84.05625 15945 ft 353 kts 210°
2026-05-06 16:42 9.86549 -84.07178 16852 ft 359 kts 219°
2026-05-06 16:42 9.84723 -84.08870 17761 ft 362 kts 221°
2026-05-06 16:42 9.82864 -84.10619 18563 ft 366 kts 221°
2026-05-06 16:43 9.80975 -84.12384 19287 ft 372 kts 220°
2026-05-06 16:43 9.79044 -84.14174 20007 ft 377 kts 220°
2026-05-06 16:43 9.77094 -84.15972 20776 ft 381 kts 220°
2026-05-06 16:43 9.75123 -84.17784 21547 ft 385 kts 220°
2026-05-06 16:44 9.73125 -84.19607 22260 ft 388 kts 219°
2026-05-06 16:44 9.70948 -84.21242 22936 ft 391 kts 209°
2026-05-06 16:44 9.68472 -84.22379 23555 ft 390 kts 195°
2026-05-06 16:44 9.65818 -84.22894 24033 ft 391 kts 181°
2026-05-06 16:45 9.63097 -84.22818 24484 ft 392 kts 173°
2026-05-06 16:45 9.60389 -84.22443 24970 ft 393 kts 166°
2026-05-06 16:45 9.57709 -84.21834 25417 ft 396 kts 164°
2026-05-06 16:45 9.55053 -84.21176 25883 ft 399 kts 164°
2026-05-06 16:46 9.52350 -84.20504 26314 ft 401 kts 164°
2026-05-06 16:46 9.49626 -84.19831 26720 ft 404 kts 164°
2026-05-06 16:46 9.46883 -84.19158 27091 ft 407 kts 164°
2026-05-06 16:46 9.44121 -84.18484 27469 ft 410 kts 164°
2026-05-06 16:47 9.41340 -84.17806 27839 ft 412 kts 165°
2026-05-06 16:47 9.38540 -84.17125 28154 ft 416 kts 165°
2026-05-06 16:47 9.35718 -84.16439 28475 ft 418 kts 165°
2026-05-06 16:47 9.32879 -84.15750 28768 ft 421 kts 165°
2026-05-06 16:48 9.30018 -84.15056 29074 ft 423 kts 165°
2026-05-06 16:48 9.27148 -84.14359 29369 ft 425 kts 165°
2026-05-06 16:48 9.24266 -84.13660 29700 ft 426 kts 165°
2026-05-06 16:48 9.21378 -84.12959 30081 ft 426 kts 165°
2026-05-06 16:49 9.18499 -84.12261 30405 ft 425 kts 165°
2026-05-06 16:49 9.15660 -84.11573 30747 ft 424 kts 165°
2026-05-06 16:49 9.12793 -84.10877 30926 ft 425 kts 166°
2026-05-06 16:50 9.07047 -84.09484 30955 ft 424 kts 166°
2026-05-06 16:50 9.01313 -84.08095 30955 ft 424 kts 165°
2026-05-06 16:51 8.95566 -84.06702 30952 ft 424 kts 165°
2026-05-06 16:51 8.89824 -84.05311 30952 ft 424 kts 165°
2026-05-06 16:52 8.84077 -84.03920 30955 ft 424 kts 165°
2026-05-06 16:52 8.78322 -84.02527 30955 ft 424 kts 165°
2026-05-06 16:53 8.72617 -84.01147 30952 ft 424 kts 165°
2026-05-06 16:53 8.66922 -83.99593 30952 ft 424 kts 160°
2026-05-06 16:54 8.61399 -83.97530 30952 ft 423 kts 157°
2026-05-06 16:54 8.55918 -83.95341 30952 ft 423 kts 157°
2026-05-06 16:55 8.50448 -83.93162 30955 ft 423 kts 157°
2026-05-06 16:55 8.44969 -83.91004 30955 ft 423 kts 158°
2026-05-06 16:56 8.39477 -83.88854 30952 ft 424 kts 158°
2026-05-06 16:56 8.33976 -83.86703 30952 ft 424 kts 158°
2026-05-06 16:57 8.28499 -83.84561 30955 ft 424 kts 158°
2026-05-06 16:57 8.22999 -83.82411 30952 ft 423 kts 158°
2026-05-06 16:58 8.17510 -83.80265 30952 ft 423 kts 158°
2026-05-06 16:58 8.12011 -83.78115 30952 ft 423 kts 158°
2026-05-06 16:59 8.06522 -83.75970 30952 ft 423 kts 158°
2026-05-06 16:59 8.01038 -83.73828 30952 ft 423 kts 158°
2026-05-06 17:00 7.95543 -83.71682 30953 ft 423 kts 158°
2026-05-06 17:00 7.90059 -83.69541 30957 ft 423 kts 157°
2026-05-06 17:01 7.84612 -83.67416 30954 ft 422 kts 157°
2026-05-06 17:01 7.79141 -83.65281 30952 ft 421 kts 157°
2026-05-06 17:02 7.73671 -83.63147 30950 ft 421 kts 157°
2026-05-06 17:02 7.68200 -83.61014 30949 ft 421 kts 157°
2026-05-06 17:03 7.62729 -83.58881 30952 ft 422 kts 157°
2026-05-06 17:03 7.57252 -83.56746 30952 ft 422 kts 157°
2026-05-06 17:04 7.51783 -83.54616 30950 ft 421 kts 157°
2026-05-06 17:04 7.46333 -83.52493 30949 ft 420 kts 157°
2026-05-06 17:05 7.40879 -83.50368 30951 ft 420 kts 157°
2026-05-06 17:05 7.35434 -83.48249 30952 ft 420 kts 157°
2026-05-06 17:06 7.29975 -83.46124 30949 ft 420 kts 158°
2026-05-06 17:06 7.24561 -83.44017 30950 ft 420 kts 158°
2026-05-06 17:07 7.19104 -83.41895 30950 ft 420 kts 157°
2026-05-06 17:07 7.13646 -83.39772 30949 ft 420 kts 157°
2026-05-06 17:08 7.08193 -83.37652 30949 ft 420 kts 158°
2026-05-06 17:08 7.02742 -83.35533 30949 ft 420 kts 158°
2026-05-06 17:09 6.97321 -83.33426 30950 ft 420 kts 157°
2026-05-06 17:09 6.91869 -83.31308 30950 ft 420 kts 158°
2026-05-06 17:10 6.86409 -83.29187 30949 ft 420 kts 157°
2026-05-06 17:10 6.80956 -83.27069 30949 ft 420 kts 157°
2026-05-06 17:11 6.75501 -83.24952 30948 ft 419 kts 157°
2026-05-06 17:11 6.70067 -83.22843 30947 ft 418 kts 157°
2026-05-06 17:12 6.64668 -83.20748 30944 ft 418 kts 157°
2026-05-06 17:12 6.59235 -83.18640 30946 ft 418 kts 157°
2026-05-06 17:13 6.53808 -83.16535 30951 ft 418 kts 157°
2026-05-06 17:13 6.48370 -83.14426 30950 ft 419 kts 158°
2026-05-06 17:14 6.42920 -83.12313 30947 ft 420 kts 158°
2026-05-06 17:14 6.37454 -83.10194 30947 ft 421 kts 157°
2026-05-06 17:15 6.32023 -83.08090 30949 ft 421 kts 158°
2026-05-06 17:15 6.26555 -83.05971 30949 ft 421 kts 158°
2026-05-06 17:16 6.21087 -83.03853 30954 ft 421 kts 158°
2026-05-06 17:16 6.15617 -83.01735 30953 ft 421 kts 157°
2026-05-06 17:17 6.10143 -82.99616 30947 ft 421 kts 158°
2026-05-06 17:17 6.04702 -82.97510 30947 ft 421 kts 158°
2026-05-06 17:18 5.99225 -82.95391 30948 ft 416 kts 158°
2026-05-06 17:18 5.93870 -82.93319 30949 ft 414 kts 158°
2026-05-06 17:19 5.88479 -82.91237 30948 ft 415 kts 158°
2026-05-06 17:19 5.83079 -82.89174 30950 ft 415 kts 158°
2026-05-06 17:20 5.77688 -82.87123 30954 ft 415 kts 158°
2026-05-06 17:20 5.72289 -82.85067 30946 ft 414 kts 158°
2026-05-06 17:21 5.66897 -82.83014 30947 ft 414 kts 158°
2026-05-06 17:21 5.61541 -82.80973 30946 ft 414 kts 158°
2026-05-06 17:22 5.56159 -82.78923 30950 ft 414 kts 158°
2026-05-06 17:22 5.50777 -82.76873 30950 ft 414 kts 158°
2026-05-06 17:23 5.45391 -82.74822 30946 ft 414 kts 158°
2026-05-06 17:23 5.40870 -82.73102 30950 ft 414 kts 158°
2026-05-06 17:24 5.35507 -82.71061 30949 ft 415 kts 158°
2026-05-06 17:24 5.30106 -82.69006 30946 ft 415 kts 158°
2026-05-06 17:25 5.24708 -82.66952 30947 ft 415 kts 158°
2026-05-06 17:25 5.19297 -82.64894 30947 ft 415 kts 158°
2026-05-06 17:26 5.13883 -82.62835 30947 ft 415 kts 158°
2026-05-06 17:26 5.08476 -82.60779 30950 ft 416 kts 158°
2026-05-06 17:27 5.03104 -82.58737 30947 ft 416 kts 158°
2026-05-06 17:27 4.97697 -82.56681 30946 ft 416 kts 158°
2026-05-06 17:28 4.92287 -82.54625 30948 ft 416 kts 158°
2026-05-06 17:28 4.86876 -82.52569 30948 ft 416 kts 158°
2026-05-06 17:29 4.81451 -82.50508 30949 ft 417 kts 158°
2026-05-06 17:29 4.76025 -82.48448 30947 ft 416 kts 158°
2026-05-06 17:30 4.70604 -82.46389 30948 ft 417 kts 158°
2026-05-06 17:30 4.65177 -82.44328 30949 ft 417 kts 158°
2026-05-06 17:31 4.59797 -82.42286 30946 ft 416 kts 158°
2026-05-06 17:31 4.54370 -82.40226 30949 ft 417 kts 158°
2026-05-06 17:32 4.48945 -82.38160 30946 ft 417 kts 157°
2026-05-06 17:32 4.43536 -82.36092 30945 ft 416 kts 157°
2026-05-06 17:33 4.38115 -82.34020 30942 ft 416 kts 157°
2026-05-06 17:33 4.32701 -82.31951 30940 ft 416 kts 157°
2026-05-06 17:34 4.27274 -82.29879 30943 ft 416 kts 157°
2026-05-06 17:34 4.21860 -82.27811 30945 ft 416 kts 157°
2026-05-06 17:35 4.16481 -82.25758 30946 ft 416 kts 157°
2026-05-06 17:35 4.11064 -82.23690 30943 ft 417 kts 157°
2026-05-06 17:36 4.02924 -82.20584 30941 ft 417 kts 157°
2026-05-06 17:36 3.97491 -82.18510 30941 ft 417 kts 157°
2026-05-06 17:37 3.92063 -82.16440 30944 ft 417 kts 157°
2026-05-06 17:37 3.86641 -82.14371 30944 ft 417 kts 157°
2026-05-06 17:38 3.81249 -82.12315 30944 ft 417 kts 157°
2026-05-06 17:38 3.75825 -82.10246 30945 ft 417 kts 157°
2026-05-06 17:39 3.70385 -82.08171 30946 ft 418 kts 157°
2026-05-06 17:39 3.64943 -82.06097 30946 ft 418 kts 157°
2026-05-06 17:40 3.59501 -82.04022 30942 ft 418 kts 157°
2026-05-06 17:40 3.54058 -82.01948 30943 ft 418 kts 157°
2026-05-06 17:41 3.48606 -81.99878 30946 ft 418 kts 157°
2026-05-06 17:41 3.43158 -81.97817 30945 ft 418 kts 157°
2026-05-06 17:42 3.37710 -81.95755 30944 ft 419 kts 157°
2026-05-06 17:42 3.32296 -81.93706 30944 ft 419 kts 157°
2026-05-06 17:43 3.26847 -81.91644 30948 ft 418 kts 157°
2026-05-06 17:43 3.21393 -81.89580 30947 ft 418 kts 157°
2026-05-06 17:44 3.15952 -81.87521 30947 ft 418 kts 157°
2026-05-06 17:44 3.10500 -81.85458 30932 ft 419 kts 157°
2026-05-06 17:45 3.05051 -81.83397 30944 ft 418 kts 157°
2026-05-06 17:45 2.99611 -81.81339 30947 ft 418 kts 157°
2026-05-06 17:46 2.94163 -81.79278 30944 ft 418 kts 157°
2026-05-06 17:46 2.88717 -81.77218 30938 ft 418 kts 157°
2026-05-06 17:47 2.83267 -81.75157 30944 ft 419 kts 157°
2026-05-06 17:47 2.77818 -81.73097 30945 ft 419 kts 157°
2026-05-06 17:48 2.72368 -81.71037 30944 ft 419 kts 157°
2026-05-06 17:48 2.66956 -81.68991 30945 ft 419 kts 157°
2026-05-06 17:49 2.61512 -81.66933 30934 ft 418 kts 157°
2026-05-06 17:49 2.56067 -81.64875 30944 ft 418 kts 157°
2026-05-06 17:50 2.50634 -81.62821 30931 ft 418 kts 157°
2026-05-06 17:50 2.45194 -81.60765 30944 ft 418 kts 157°
2026-05-06 17:51 2.39749 -81.58708 30933 ft 418 kts 157°
2026-05-06 17:51 2.34306 -81.56651 30930 ft 418 kts 157°
2026-05-06 17:52 2.28867 -81.54596 30943 ft 418 kts 157°
2026-05-06 17:52 2.23428 -81.52541 30944 ft 418 kts 156°
2026-05-06 17:53 2.17988 -81.50486 30930 ft 418 kts 156°
2026-05-06 17:53 2.12832 -81.48539 30944 ft 418 kts 156°
2026-05-06 17:54 2.07355 -81.46470 30939 ft 418 kts 156°
2026-05-06 17:54 2.01946 -81.44428 30941 ft 418 kts 156°
2026-05-06 17:55 1.96505 -81.42373 30944 ft 418 kts 156°
2026-05-06 17:55 1.91064 -81.40318 30942 ft 418 kts 156°
2026-05-06 17:56 1.85626 -81.38265 30941 ft 417 kts 156°
2026-05-06 17:56 1.80202 -81.36217 30938 ft 417 kts 156°
2026-05-06 17:57 1.74778 -81.34169 30940 ft 416 kts 156°
2026-05-06 17:57 1.69355 -81.32122 30932 ft 417 kts 156°
2026-05-06 17:58 1.63929 -81.30074 30935 ft 416 kts 156°
2026-05-06 17:58 1.58507 -81.28027 30944 ft 416 kts 156°
2026-05-06 17:59 1.53096 -81.25985 30942 ft 415 kts 156°
2026-05-06 17:59 1.47700 -81.23949 30931 ft 415 kts 156°
2026-05-06 18:00 1.42304 -81.21913 30936 ft 414 kts 156°
2026-05-06 18:00 1.36914 -81.19866 30943 ft 414 kts 156°
2026-05-06 18:01 1.31564 -81.17826 30944 ft 414 kts 156°
2026-05-06 18:01 1.26172 -81.15770 30944 ft 414 kts 156°
2026-05-06 18:02 1.20787 -81.13719 30944 ft 414 kts 156°
2026-05-06 18:02 1.15401 -81.11667 30926 ft 414 kts 156°
2026-05-06 18:03 1.10016 -81.09617 30928 ft 414 kts 156°
2026-05-06 18:03 1.04642 -81.07571 30934 ft 413 kts 156°
2026-05-06 18:04 0.99268 -81.05525 30935 ft 413 kts 156°
2026-05-06 18:04 0.93896 -81.03479 30931 ft 413 kts 156°
2026-05-06 18:05 0.88524 -81.01434 30932 ft 413 kts 156°
2026-05-06 18:05 0.83152 -80.99388 30929 ft 413 kts 156°
2026-05-06 18:06 0.77781 -80.97343 30936 ft 413 kts 156°
2026-05-06 18:06 0.72409 -80.95298 30940 ft 413 kts 156°
2026-05-06 18:07 0.67036 -80.93253 30932 ft 413 kts 156°
2026-05-06 18:07 0.61700 -80.91221 30928 ft 413 kts 156°
2026-05-06 18:08 0.56335 -80.89179 30931 ft 412 kts 156°
2026-05-06 18:08 0.50978 -80.87140 30929 ft 411 kts 156°
2026-05-06 18:09 0.45627 -80.85103 30922 ft 411 kts 156°
2026-05-06 18:09 0.40549 -80.83169 30930 ft 411 kts 156°